TimeMDT,TemperatureF,Dew PointF,Humidity,Sea Level PressureIn,VisibilityMPH,Wind Direction,Wind SpeedMPH,Gust SpeedMPH,PrecipitationIn,Events,Conditions,WindDirDegrees,DateUTC
12:53 AM,46.9,26.1,44,30.03,10.0,WNW,11.5,-,N/A,,Clear,290,2012-10-31 06:53:00
1:53 AM,42.1,25.0,51,30.06,10.0,West,10.4,-,N/A,,Clear,280,2012-10-31 07:53:00
2:53 AM,41.0,26.1,55,30.07,10.0,WSW,8.1,-,N/A,,Clear,250,2012-10-31 08:53:00
3:53 AM,42.1,26.1,53,30.06,10.0,WSW,10.4,-,N/A,,Clear,250,2012-10-31 09:53:00
4:53 AM,42.1,25.0,51,30.06,10.0,SW,6.9,-,N/A,,Clear,230,2012-10-31 10:53:00
5:53 AM,39.9,25.0,55,30.10,10.0,West,8.1,-,N/A,,Clear,260,2012-10-31 11:53:00
6:53 AM,41.0,25.0,53,30.11,10.0,WSW,8.1,-,N/A,,Clear,250,2012-10-31 12:53:00
7:53 AM,42.1,25.0,51,30.12,10.0,WSW,5.8,-,N/A,,Clear,250,2012-10-31 13:53:00
8:53 AM,44.1,26.1,49,30.12,10.0,NNE,3.5,-,N/A,,Clear,20,2012-10-31 14:53:00
9:53 AM,46.0,27.0,47,30.15,10.0,Calm,Calm,-,N/A,,Clear,0,2012-10-31 15:53:00
10:53 AM,48.0,28.9,48,30.14,10.0,SSE,4.6,-,N/A,,Clear,150,2012-10-31 16:53:00
11:53 AM,52.0,27.0,38,30.13,10.0,Calm,Calm,-,N/A,,Clear,0,2012-10-31 17:53:00
12:53 PM,57.0,28.9,34,30.08,10.0,Calm,Calm,-,N/A,,Clear,0,2012-10-31 18:53:00
1:53 PM,60.1,28.9,31,30.05,10.0,Variable,3.5,-,N/A,,Clear,0,2012-10-31 19:53:00
2:53 PM,63.0,26.1,25,30.03,10.0,ESE,5.8,-,N/A,,Clear,120,2012-10-31 20:53:00
3:53 PM,64.9,21.9,19,30.00,10.0,Variable,3.5,-,N/A,,Clear,0,2012-10-31 21:53:00
4:53 PM,64.0,24.1,22,30.00,10.0,Calm,Calm,-,N/A,,Clear,0,2012-10-31 22:53:00
5:53 PM,60.1,26.1,27,30.02,10.0,East,3.5,-,N/A,,Clear,100,2012-10-31 23:53:00
6:53 PM,52.0,27.0,38,30.06,10.0,North,3.5,-,N/A,,Clear,360,2012-11-01 00:53:00
7:53 PM,52.0,27.0,38,30.06,10.0,NNE,3.5,-,N/A,,Clear,20,2012-11-01 01:53:00
8:53 PM,44.1,25.0,47,30.06,10.0,Calm,Calm,-,N/A,,Clear,0,2012-11-01 02:53:00
9:53 PM,45.0,25.0,46,30.04,10.0,WSW,6.9,-,N/A,,Clear,240,2012-11-01 03:53:00
10:53 PM,39.9,25.0,55,30.06,10.0,WNW,9.2,-,N/A,,Clear,300,2012-11-01 04:53:00
11:53 PM,39.0,26.1,60,30.03,10.0,Calm,Calm,-,N/A,,Clear,0,2012-11-01 05:53:00